Weather History for Whitefield, NH

Change the Weather History Date:

Sunday, May 4, 2014

  Actual Average Record
Temperature  
Mean Temperature 47 °F -  
Max Temperature 52 °F 60 °F 77 °F (2001)
Min Temperature 43 °F 32 °F 21 °F (2003)
Degree Days  
Heating Degree Days 18    
Moisture  
Dew Point 42 °F    
Average Humidity 87    
Maximum Humidity 96    
Minimum Humidity 68    
Precipitation  
Precipitation 0.74 in - - ()
Sea Level Pressure  
Sea Level Pressure 29.56 in    
Wind  
Wind Speed 3 mph (WSW)    
Max Wind Speed 12 mph    
Max Gust Speed -    
Visibility 6 miles    
Events Rain    
Averages and records for this station are not official NWS values.
T = Trace of Precipitation, MM = Missing Value Source: NWS Daily Summary

Daily Weather History Graph

Daily Weather History Graph

Search for Another Location

Airport:

Trip Planner

Search our weather history database for the weather conditions in past years. The results will help you decide how hot, cold, wet, or windy it might be!

Date:

Astronomy

May. 04, 2014 Rise Set
Actual Time 5:32 AM EDT 7:53 PM EDT
Civil Twilight 5:00 AM EDT 8:26 PM EDT
Nautical Twilight 4:20 AM EDT 9:06 PM EDT
Astronomical Twilight 3:35 AM EDT 9:51 PM EDT
Moon 9:53 AM EDT (5/4) No Moon Set
Length of Visible Light 15h 25m
Length of Day
14h 21m
Waxing Crescent, 27% of the Moon is Illuminated
May 4
Waxing Crescent
May 6
First Quarter
May 14
Full
May 21
Last Quarter
May 28
New

Hourly Weather History & Observations

Time (EDT) Temp. Windchill Dew Point Humidity Pressure Visibility Wind Dir Wind Speed Gust Speed Precip Events Conditions
12:52 AM 46.0 °F - 44.1 °F 93% 29.68 in 10.0 mi Calm Calm - 0.00 in   Overcast
1:52 AM 45.0 °F - 43.0 °F 93% 29.66 in 7.0 mi Calm Calm - 0.01 in   Overcast
2:25 AM 45.0 °F - 43.0 °F 93% 29.62 in 2.5 mi Calm Calm - 0.00 in   Overcast
2:32 AM 44.1 °F - 43.0 °F 96% 29.62 in 6.0 mi Calm Calm - 0.00 in   Overcast
2:52 AM 45.0 °F - 43.0 °F 93% 29.62 in 7.0 mi Calm Calm - 0.00 in   Overcast
3:52 AM 44.1 °F - 42.1 °F 93% 29.60 in 7.0 mi Calm Calm - 0.00 in   Overcast
4:52 AM 44.1 °F - 42.1 °F 93% 29.57 in 3.0 mi Calm Calm - 0.03 in Rain Light Rain
5:02 AM 44.1 °F 40.8 °F 42.1 °F 93% 29.56 in 1.8 mi West 5.8 mph - 0.05 in Rain Heavy Rain
5:08 AM 45.0 °F 42.6 °F 43.0 °F 93% 29.56 in 3.0 mi SE 4.6 mph - 0.05 in Rain Light Rain
5:24 AM 45.0 °F - 43.0 °F 93% 29.57 in 2.0 mi Calm Calm - 0.10 in Rain Rain
5:32 AM 45.0 °F 43.5 °F 43.0 °F 93% 29.57 in 1.2 mi Variable 3.5 mph - 0.16 in Rain Heavy Rain
5:43 AM 46.0 °F 43.1 °F 44.1 °F 93% 29.57 in 1.2 mi Variable 5.8 mph - 0.23 in Rain Heavy Rain
5:52 AM 46.0 °F 43.1 °F 43.0 °F 89% 29.58 in 1.8 mi West 5.8 mph - 0.26 in Rain Rain
5:59 AM 46.0 °F 43.1 °F 42.1 °F 86% 29.57 in 2.5 mi WSW 5.8 mph - 0.02 in Rain Rain
6:06 AM 46.0 °F 43.1 °F 42.1 °F 86% 29.58 in 3.0 mi Variable 5.8 mph - 0.03 in Rain Light Rain
6:32 AM 45.0 °F 43.5 °F 43.0 °F 93% 29.58 in 2.0 mi SSW 3.5 mph - 0.08 in Rain Rain
6:39 AM 45.0 °F 41.2 °F 43.0 °F 93% 29.57 in 1.8 mi South 6.9 mph - 0.11 in Rain Rain
6:52 AM 45.0 °F 41.2 °F 41.0 °F 86% 29.58 in 2.0 mi SSW 6.9 mph - 0.15 in Rain Rain
7:09 AM 44.1 °F - 41.0 °F 89% 29.57 in 3.0 mi Calm Calm - 0.03 in Rain Light Rain
7:17 AM 44.1 °F 42.5 °F 41.0 °F 89% 29.57 in 5.0 mi SW 3.5 mph - 0.03 in Rain Light Rain
7:52 AM 44.1 °F 41.5 °F 42.1 °F 93% 29.58 in 4.0 mi Variable 4.6 mph - 0.05 in Rain Light Rain
8:18 AM 44.1 °F 40.8 °F 39.9 °F 85% 29.56 in 5.0 mi West 5.8 mph - 0.01 in Rain Light Rain
8:48 AM 44.6 °F 43.1 °F 41.0 °F 87% 29.55 in 10.0 mi West 3.5 mph - 0.02 in Rain Light Rain
8:52 AM 44.1 °F - 41.0 °F 89% 29.57 in 10.0 mi Calm Calm - 0.02 in Rain Light Rain
9:39 AM 44.1 °F - 39.9 °F 85% 29.54 in 4.0 mi Calm Calm - 0.00 in Rain Light Rain
9:52 AM 45.0 °F - 41.0 °F 86% 29.56 in 7.0 mi Calm Calm - 0.01 in Rain Light Rain
10:01 AM 44.1 °F - 42.1 °F 93% 29.54 in 3.0 mi Calm Calm - 0.01 in Rain Light Rain
10:24 AM 44.1 °F 41.5 °F 41.0 °F 89% 29.53 in 2.0 mi SSW 4.6 mph - 0.04 in Rain Light Rain
10:34 AM 45.0 °F 41.8 °F 41.0 °F 86% 29.53 in 4.0 mi Variable 5.8 mph - 0.05 in Rain Light Rain
10:52 AM 45.0 °F 42.6 °F 41.0 °F 86% 29.55 in 10.0 mi North 4.6 mph - 0.05 in   Overcast
11:52 AM 48.0 °F - 43.0 °F 83% 29.52 in 6.0 mi NE 3.5 mph - 0.01 in Rain Light Rain
12:10 PM 46.9 °F - 41.0 °F 80% 29.50 in 10.0 mi Variable 4.6 mph - 0.00 in   Overcast
12:26 PM 46.9 °F - 41.0 °F 80% 29.50 in 10.0 mi WSW 3.5 mph - 0.00 in Rain Light Rain
12:52 PM 48.0 °F - 42.1 °F 80% 29.51 in 10.0 mi South 5.8 mph - 0.00 in Rain Light Rain
1:20 PM 46.0 °F 44.8 °F 39.0 °F 76% 29.49 in 5.0 mi Variable 3.5 mph - 0.01 in Rain Light Rain
1:29 PM 46.9 °F - 41.0 °F 80% 29.49 in 7.0 mi East 3.5 mph - 0.01 in Rain Light Rain
1:52 PM 51.1 °F - 44.1 °F 77% 29.50 in 10.0 mi Calm Calm - 0.01 in   Overcast
2:52 PM 50.0 °F - 39.9 °F 68% 29.50 in 10.0 mi North 11.5 mph - N/A   Overcast
3:52 PM 48.9 °F - 39.9 °F 71% 29.50 in 10.0 mi WNW 8.1 mph - 0.00 in Rain Light Rain
4:00 PM 48.0 °F - 39.9 °F 74% 29.49 in 9.0 mi West 8.1 mph - 0.00 in Rain Light Rain
4:11 PM 48.9 °F - 41.0 °F 74% 29.49 in 10.0 mi West 8.1 mph - 0.00 in Rain Light Rain
4:52 PM 46.9 °F - 41.0 °F 80% 29.52 in 10.0 mi SW 4.6 mph - 0.01 in Rain Light Rain
5:52 PM 45.0 °F 40.1 °F 41.0 °F 86% 29.54 in 4.0 mi NW 9.2 mph - 0.04 in Rain Light Rain
6:52 PM 44.1 °F 42.5 °F 39.9 °F 85% 29.56 in 4.0 mi West 3.5 mph - 0.05 in Rain Light Rain
7:52 PM 43.0 °F 41.3 °F 39.9 °F 89% 29.57 in 10.0 mi SSW 3.5 mph - 0.03 in Rain Light Rain
8:52 PM 43.0 °F 41.3 °F 39.9 °F 89% 29.58 in 10.0 mi SSW 3.5 mph - 0.00 in   Overcast
9:06 PM 43.0 °F - 39.9 °F 89% 29.57 in 10.0 mi Calm Calm - N/A   Overcast
9:52 PM 43.0 °F - 41.0 °F 93% 29.61 in 10.0 mi Calm Calm - 0.01 in   Overcast
10:52 PM 43.0 °F 41.3 °F 41.0 °F 93% 29.62 in 10.0 mi South 3.5 mph - N/A   Overcast
11:48 PM 44.6 °F - 41.0 °F 87% 29.62 in 10.0 mi Calm Calm - N/A   Overcast
11:52 PM 44.1 °F 42.5 °F 41.0 °F 89% 29.64 in 10.0 mi NE 3.5 mph - N/A   Overcast